{"data":{"norad_id":49746,"epoch":"2026-05-25T02:04:53.668128Z","epoch_age_seconds":60804,"freshness":"FRESH","line1":"1 49746U 21115Y   26145.08673227 -.00000647  00000+0 -22586-4 0  9998","line2":"2 49746  53.2114 166.1610 0001248  83.3082 276.8053 15.08837453247062","mean_motion":15.08837453,"eccentricity":0.0001248,"inclination_deg":53.2114,"raan_deg":166.161,"arg_perigee_deg":83.3082,"mean_anomaly_deg":276.8053,"bstar":-2.2586e-5,"rev_number":24706,"period_min":95.437715781569,"perigee_km":538.88782169098,"apogee_km":540.61452657924,"semimajor_km":6917.8881741351,"source":"CELESTRAK","updated_at":"2026-05-25T13:38:16.835897Z"}}